Location: Fohra
(48.4000°N, 15.3333°E)
Time: 11:03:30
(UTC+00:00)

Daily predictions for brighter satellites

Satellite Brightness Start Highest point End
(mag) Time Altitude Azimuth Time Altitude Azimuth Time Altitude Azimuth
GEOS 3 Rocket 3.7 19:02:31 10° NE 19:07:46 88° SE 19:12:54 10° SW
Cosmos 371 Rocket 3.6 19:04:10 10° NNW 19:08:59 73° WSW 19:13:47 10° SSE
Helios 1A Rocket 3.8 19:05:15 10° S 19:09:13 52° W 19:13:15 10° NNW
Cosmos 2322 Rocket 2.8 19:04:50 10° NNW 19:10:14 44° NE 19:15:35 10° SE
USA 276 2.7 19:14:49 10° W 19:17:51 45° SSW 19:20:53 10° SE
USA 234 4.4 19:14:49 10° ENE 19:20:55 42° N 19:26:59 10° WNW
SAR-Lupe-4 4.0 19:21:01 10° N 19:24:36 68° WNW 19:28:09 10° SSW
Cosmos 2219 Rocket 4.0 19:23:11 10° N 19:27:16 20° NE 19:31:20 10° E
Spot 2 Rocket 4.3 19:23:06 10° SE 19:27:45 37° ENE 19:32:25 10° N
Cosmos 1633 3.4 19:25:51 10° SSW 19:29:23 54° WNW 19:32:57 10° N
BREEZE-M DEB (TANK) 3.5 19:27:44 10° SW 19:31:15 57° SE 19:43:07 10° ENE
Cosmos 1680 Rocket 3.9 19:30:03 10° S 19:34:59 42° ESE 19:39:54 10° NE
Cosmos 1076 Rocket 4.2 19:32:14 10° SSW 19:36:31 58° WNW 19:40:52 10° N
Resurs 01 Rocket 1.8 19:32:29 10° S 19:36:55 80° WSW 19:41:25 10° NNW
SL-16 R/B 2.2 19:35:19 10° NNW 19:41:02 88° ENE 19:46:27 11° SSE
Cosmos 1151 Rocket 3.5 19:37:02 10° N 19:41:15 46° ENE 19:44:57 13° SSE
Terra 3.2 19:40:07 11° ESE 19:43:40 25° ENE 19:47:33 10° N
ATLAS 5 CENTAUR R/B 3.8 19:40:42 10° NNW 19:45:01 26° NNE 19:49:58 10° E
Meteor 2-3 Rocket 3.7 19:41:39 10° S 19:47:18 79° E 19:53:05 10° NNE
Cosmos 332 Rocket 4.5 19:42:44 10° NNW 19:47:31 54° WSW 19:52:17 10° S
SPOT 3 Rocket 3.7 19:42:26 10° SSE 19:47:40 83° WSW 19:52:55 10° NNW
NOSS 2-1 (E) 3.9 19:45:37 10° S 19:48:23 25° ESE 19:51:11 10° ENE
CZ-2C R/B 3.9 19:45:05 10° NNE 19:49:29 50° E 19:53:49 10° S
Cosmos 2237 4.4 19:45:20 10° NNW 19:51:02 66° ENE 19:55:45 15° SE
Cosmos 1933 3.7 19:48:21 10° NNW 19:52:23 65° W 19:56:21 10° S
Cosmos 1271 Rocket 3.0 19:49:42 10° NNW 19:53:42 73° W 19:57:42 10° S
NOSS 3-1 (C) 4.5 19:47:24 10° NW 19:54:27 55° NE 20:02:01 13° ESE
COSMOS 2428 4.2 19:50:06 10° N 19:54:46 25° NE 19:59:24 10° E
Cosmos 1328 Rocket 3.9 19:50:32 10° N 19:54:52 49° ENE 19:58:06 17° SSE
Cosmos 1766 Rocket 3.8 19:50:48 10° SSE 19:55:01 48° E 19:59:14 10° NNE
Gbstr 26 Del rocket 3.5 19:52:06 10° WNW 19:55:36 38° SW 19:58:12 17° SSE
SPOT 5 3.2 19:57:34 17° SE 20:00:34 44° ENE 20:04:49 10° N
CZ-3B R/B 4.2 19:43:07 10° WNW 20:01:29 58° N 20:05:56 10° E
ARIANE 5 R/B 2.9 19:58:58 17° SE 20:02:17 56° ENE 20:06:38 10° N
JB-3 4.4 19:59:13 10° NNE 20:03:20 63° E 20:07:17 10° S
Cosmos 292 Rocket 4.4 20:01:00 10° NNW 20:05:34 43° ENE 20:08:41 19° SE
Meteor 2-6 Rocket 4.3 20:00:34 10° N 20:05:54 56° ENE 20:09:47 18° SSE
Cosmos 1862 4.0 20:04:11 19° SSE 20:06:28 36° E 20:10:08 10° NNE
Cosmos 1782 3.0 20:04:20 10° NNW 20:08:21 73° W 20:11:44 14° S
Cosmos 1624 Rocket 4.0 20:07:09 10° NNW 20:12:24 79° ENE 20:16:05 20° SSE
Cosmos 2082 Rocket 4.4 20:09:15 10° WSW 20:14:06 29° NW 20:19:01 10° NNE
Cosmos 220 Rocket 4.1 20:11:13 10° NNW 20:15:35 74° WSW 20:18:36 20° SSE
ATLAS 3B R/B 4.4 20:14:06 10° WNW 20:19:49 26° WSW 20:25:42 10° SSW
Cosmos 2360 Rocket 2.2 20:14:26 10° NNW 20:20:07 83° ENE 20:23:55 22° SSE
Cosmos 1420 Rocket 4.2 20:15:33 10° NNW 20:20:52 64° ENE 20:24:12 23° SE
Cosmos 1174 3.2 20:22:28 10° NNW 20:25:27 61° NE 20:26:29 35° ESE
COSMOS 2487 4.2 20:26:57 16° E 20:26:57 16° E 20:28:35 10° ENE
USA 267 4.4 20:22:52 10° ENE 20:27:24 20° ESE 20:27:32 20° SE
NOSS 3-1 (A) 4.4 20:23:49 10° NW 20:30:54 57° NE 20:37:35 17° ESE
NOSS 2-1 (C) 2.7 20:29:13 10° SW 20:32:29 84° SE 20:35:54 10° NE
Cosmos 1500 Rocket 4.2 20:34:48 28° SE 20:36:18 37° E 20:40:25 10° NNE
Cosmos 2084 3.5 20:34:05 10° SW 20:38:09 74° NW 20:42:21 10° NE
COSMOS 2455 3.3 20:34:51 20° S 20:38:23 39° ESE 20:43:55 10° NE
Cosmos 1812 3.0 20:34:34 10° NNW 20:38:25 65° W 20:40:31 25° S
Cosmos 1833 4.2 20:33:32 10° SSW 20:39:13 64° ESE 20:44:57 10° NNE
GP-B 4.0 20:35:32 10° N 20:39:49 47° W 20:44:01 10° SSW
NOSS 2-1 (D) 2.8 20:36:58 10° SW 20:40:15 80° NW 20:43:40 10° NE
Meteor 1-27 Rocket 4.1 20:34:47 10° N 20:40:20 53° ENE 20:43:22 26° SE
Cosmos 2333 Rocket 2.4 20:35:38 10° NNW 20:41:16 63° ENE 20:44:24 27° SE
Cosmos 1452 Rocket 3.9 20:38:09 10° NNW 20:43:19 52° ENE 20:45:57 27° SE
ERS-1 Rocket 3.1 20:40:25 23° S 20:43:36 75° WSW 20:48:39 10° NNW
Meteor 2-16 Rocket 4.4 20:42:27 22° S 20:46:28 66° E 20:52:31 10° NNE
SL-27 R/B 2.6 20:44:41 18° SSW 20:47:15 76° WNW 20:50:53 10° NNE
Cosmos 2322 3.8 20:42:44 10° NNW 20:48:29 68° ENE 20:51:30 29° SE
H-2A R/B 4.0 20:45:41 10° NNE 20:49:41 41° E 20:50:38 35° SE
Cosmos 2056 Rocket 4.1 20:48:00 10° NNW 20:53:10 50° WSW 20:56:16 22° S
Cosmos 1408 Rocket 3.5 20:50:54 24° SSW 20:53:30 84° WNW 20:57:51 10° N
Cosmos 2237 Rocket 3.8 20:49:06 10° N 20:53:50 26° NE 20:57:41 14° E
Cosmos 2322 Rocket 3.4 20:49:07 10° NW 20:54:10 35° WSW 20:57:55 16° SSW
Cosmos 1743 Rocket 3.7 20:55:45 37° SSE 20:57:18 59° E 21:01:41 10° NNE
Sich 1 4.1 20:57:14 27° ESE 20:57:45 27° E 21:01:25 10° NNE
CZ-4B DEB 4.1 21:00:12 65° S 21:00:37 88° WSW 21:03:49 10° NNW
USA 234 4.0 20:56:57 10° E 21:03:14 51° NNE 21:09:32 10° NW
Meteor 1-10 Rocket 4.4 20:58:38 10° NNW 21:04:09 67° W 21:07:16 26° S
Gblst 52 Del rocket 4.5 21:01:10 10° WNW 21:07:14 90° SSW 21:11:50 23° ESE
IRIDIUM 104 4.4 21:04:55 10° N 21:10:07 63° E 21:12:02 37° SSE
Cosmos 2219 Rocket 2.1 21:06:27 10° NNW 21:12:05 86° ENE 21:14:26 37° SSE
BREEZE M DEB (TANK) 4.5 21:12:14 10° WSW 21:16:58 66° SSE 21:53:54 10° E
Cosmos 1515 Rocket 4.5 21:14:27 10° NNW 21:18:38 42° W 21:20:36 26° SW
IRIDIUM 114 4.3 21:14:01 10° N 21:19:16 75° E 21:21:09 40° SSE
Terra 2.5 21:19:00 27° SSW 21:21:11 46° W 21:25:47 10° NNW
SL-16 R/B 4.3 21:19:00 10° N 21:22:58 19° NE 21:26:55 10° E
Cosmos 2285 Rocket 3.9 21:17:10 10° NNW 21:23:31 90° ENE 21:26:17 36° SSE
Cosmos 2266 Rocket 4.0 21:19:57 24° SSW 21:23:50 79° W 21:30:09 10° N
SL-16 R/B 4.4 21:21:01 10° WNW 21:24:19 16° W 21:27:38 10° SW
Spot 4 4.4 21:23:58 35° ESE 21:25:25 46° ENE 21:30:02 10° N
Meteor 1-25 Rocket 4.5 21:23:50 38° SE 21:25:29 50° E 21:30:51 10° NNE
Cosmos 2315 Rocket 4.0 21:21:39 10° N 21:28:01 88° W 21:30:56 35° S
IRIDIUM 103 4.2 21:23:10 10° N 21:28:26 89° E 21:30:18 41° S
Cosmos 1515 3.9 21:26:10 10° N 21:29:53 53° ENE 21:30:04 52° E
ATLAS 5 CENTAUR R/B 2.3 21:24:51 10° NW 21:30:20 82° NE 21:33:05 36° SE
Cosmos 468 4.4 21:29:46 42° S 21:31:25 67° ESE 21:36:38 10° NNE
Cosmos 494 Rocket 4.0 21:32:48 46° SSE 21:33:54 57° ESE 21:38:57 10° NNE
Cosmos 2228 Rocket 3.1 21:29:47 10° NNW 21:34:11 71° W 21:35:17 49° SSW
Okean 1 3.7 21:35:16 10° N 21:39:11 49° ENE 21:39:27 48° E
Cosmos 1602 3.9 21:39:19 55° E 21:39:19 55° E 21:42:59 10° NNE
COSMOS 2428 2.7 21:33:56 10° NNW 21:39:39 74° WSW 21:41:31 43° S
Meteor 1-19 Rocket 4.2 21:39:01 10° N 21:44:38 66° ENE 21:46:15 44° SE
Cosmos 1707 Rocket 3.5 21:40:59 10° N 21:45:21 70° E 21:45:57 60° SE
NOSS 3-1 (C) 4.5 21:38:17 10° NW 21:45:34 52° WSW 21:49:24 32° S
Cosmos 1048 Rocket 3.9 21:48:39 39° SSW 21:50:35 84° WNW 21:55:45 10° NNE
Cosmos 1666 4.4 21:51:36 22° ENE 21:51:36 22° ENE 21:54:04 10° NE
ALOS 2 2.9 21:59:23 50° ESE 21:59:57 55° ENE 22:04:16 10° N
Cosmos 2219 4.2 22:00:29 30° ESE 22:00:45 31° ESE 22:05:43 10° NE
COSMOS 2487 3.8 22:00:10 30° W 22:00:50 33° WNW 22:03:58 10° N
USA 229 DEB 4.1 21:54:21 10° NW 22:01:33 61° WSW 22:04:27 38° S
USA 229 4.1 21:54:26 10° NW 22:01:39 61° WSW 22:04:33 39° S
Cosmos 2360 Rocket 4.2 21:59:51 10° WNW 22:03:22 17° W 22:05:41 14° SW
Cosmos 1805 Rocket 4.2 22:02:11 39° SW 22:03:24 51° WNW 22:07:45 10° N
Cosmos 1302 Rocket 4.2 21:58:49 10° NNW 22:04:00 61° ENE 22:05:21 45° ESE
Cosmos 1269 Rocket 4.5 22:07:17 41° ESE 22:07:37 42° ESE 22:12:35 10° NE
Cosmos 2084 Rocket 3.2 22:04:55 10° NW 22:09:08 86° SW 22:09:17 82° S
Meteor 1-14 Rocket 4.4 22:09:13 47° SE 22:10:18 54° E 22:15:49 10° NNE
Nadezhda 1 Rocket 4.3 22:04:45 10° N 22:11:07 61° ENE 22:13:14 41° SE
USA 267 3.2 22:04:44 10° ENE 22:11:16 66° SE 22:14:48 29° SW
CZ-4C R/B 4.0 22:04:58 10° NW 22:11:17 39° NNE 22:18:41 10° E
Cosmos 1980 3.6 22:10:22 10° NNW 22:16:05 88° ENE 22:17:31 53° SSE
NOSS 0 Rocket 4.0 22:11:00 10° NNW 22:17:12 68° WSW 22:18:54 48° S
Okean 1-7 4.2 22:15:17 10° N 22:19:06 31° ENE 22:19:30 31° E
NOSS 3-1 (A) 4.5 22:14:46 10° NW 22:22:02 50° WSW 22:25:00 36° SSW
COSMOS 2455 3.7 22:18:28 10° WSW 22:24:15 47° NW 22:30:05 10° NNE
Cosmos 2333 Rocket 3.7 22:20:41 10° NW 22:25:03 24° WSW 22:26:23 22° WSW
Lacrosse 5 1.9 22:25:49 58° SE 22:25:49 58° SE 22:30:35 10° ENE
NOSS 2-2 (D) 4.3 22:25:47 10° NW 22:31:01 90° NE 22:33:24 43° SE
BREEZE-M R/B 2.4 22:31:56 82° SSW 22:32:02 83° S 22:37:21 10° E
Cosmos 2297 Rocket 2.2 22:32:07 55° SSE 22:32:59 63° ESE 22:38:37 10° NNE
Cosmos 1500 3.5 22:34:31 60° WNW 22:34:31 60° WNW 22:38:11 10° N
Sich 1 4.4 22:34:10 27° WSW 22:35:19 31° WNW 22:39:13 10° N
Cosmos 2237 Rocket 2.2 22:32:46 10° NNW 22:38:25 69° WSW 22:39:29 56° S
Thor Agena Rocket 4.2 22:33:57 10° NNE 22:38:40 38° E 22:39:01 38° ESE
Cosmos 1470 Rocket 3.4 22:43:08 88° WSW 22:43:10 88° W 22:47:31 10° N
Cosmos 1633 Rocket 3.5 22:44:04 48° W 22:44:31 50° WNW 22:48:47 10° N
Cosmos 2227 Rocket 2.2 22:44:30 54° SE 22:45:15 59° ESE 22:50:49 10° NE
USA 234 3.1 22:42:59 35° SE 22:46:02 82° SW 22:52:39 10° NW
Cosmos 1933 Rocket 3.5 22:49:28 71° ESE 22:49:31 71° E 22:53:58 10° NNE
Cosmos 2242 Rocket 3.6 22:49:10 10° N 22:53:35 70° ENE 22:53:45 69° E
Cosmos 1340 Rocket 3.0 22:54:24 65° NE 22:54:24 65° NE 22:57:53 10° NNE
Cosmos 1544 4.5 22:55:37 31° ENE 22:55:37 31° ENE 22:58:09 10° NNE
Cosmos 2219 Rocket 4.0 22:51:56 10° WNW 22:55:15 16° W 22:56:08 16° WSW
Cosmos 1378 3.6 22:52:42 10° N 22:55:52 59° NNE 22:55:52 59° NNE
Cosmos 2263 Rocket 4.1 22:57:34 15° ESE 22:58:16 15° E 23:01:28 10° ENE
Cosmos 44 4.5 22:59:51 10° NNW 23:04:56 43° NE 23:07:58 21° ESE
Cosmos 2181 Rocket 4.3 22:59:39 10° N 23:05:55 59° ENE 23:08:02 40° SE
SL-16 R/B 2.2 23:02:21 10° NNW 23:08:04 78° ENE 23:09:38 49° SE
Cosmos 2251 Rocket 4.2 23:08:14 39° ESE 23:08:41 40° ESE 23:13:37 10° NE
ATLAS 5 CENTAUR R/B 3.7 23:10:10 10° WNW 23:14:35 24° WSW 23:14:35 24° WSW
Okean 3 3.5 23:11:41 10° N 23:15:58 69° E 23:16:01 69° E
Intercosmos 25 Rocket 3.5 23:24:02 77° SSE 23:24:21 86° E 23:30:17 10° N
Cosmos 1743 3.4 23:25:44 45° ENE 23:25:44 45° ENE 23:29:00 10° NNE
Cosmos 1666 4.1 23:26:26 30° WNW 23:26:26 30° WNW 23:29:51 10° N
Meteor 1-11 Rocket 3.6 23:25:58 59° S 23:27:04 88° ESE 23:32:38 10° NNE
Helios 1A 4.3 23:27:02 28° E 23:28:08 32° ENE 23:31:55 10° N
Cosmos 1703 Rocket 4.0 23:25:30 10° NNW 23:29:38 49° W 23:29:38 49° W
Cosmos 2221 Rocket 4.5 23:26:53 10° N 23:31:16 43° ENE 23:32:13 38° ESE
ARGOS Delta rocket 4.3 23:27:54 10° NNE 23:32:17 42° E 23:32:38 42° ESE
Cosmos 1709 Rocket 4.1 23:30:39 47° SSW 23:32:34 73° W 23:38:59 10° N
PSLV R/B 3.7 23:28:47 10° NNE 23:33:34 79° WNW 23:34:07 68° SW
Cosmos 1992 Rocket 4.1 23:31:11 10° NNW 23:36:17 55° WSW 23:36:41 53° SW
ASTEX 1 3.8 23:35:16 45° SE 23:36:22 56° ENE 23:41:11 10° N
Cosmos 909 Rocket 4.3 23:36:15 38° SW 23:39:09 81° NW 23:47:10 10° NE
Cosmos 1943 4.3 23:34:40 10° NNW 23:40:05 41° NE 23:44:45 13° ESE
Cosmos 1733 Rocket 3.9 23:41:40 37° ESE 23:42:11 38° E 23:46:19 10° NNE
SL-8 R/B 4.0 23:43:02 50° ESE 23:43:02 50° ESE 23:46:59 10° E
CZ-2D R/B 3.6 23:39:11 10° NE 23:43:42 26° E 23:45:32 22° ESE
Cosmos 407 Rocket 4.4 23:43:30 33° SE 23:44:25 35° ESE 23:49:10 10° NE
Cosmos 2219 3.8 23:42:22 33° WSW 23:44:39 51° NW 23:50:17 10° NNE
YAOGAN 11 4.3 23:53:53 55° SE 23:54:43 71° ENE 23:59:12 10° N
